Location: *
(49.9853°N, 3.5569°E)
Time: 08:41:17
(UTC+00:00)

Cosmos 1437 Rocket - Pass Details

Date: 22 September 2019
Orbit: 506 x 563 km, 81.2° (Epoch: 19 October)

Event Time Altitude Azimuth Distance (km) Brightness Sun altitude
Rises 18:40:27 0° 356° (N) 2,639 6.5 -9.7°
Reaches altitude 10° 18:42:50 10° 9° (N) 1,742 5.4 -10.1°
Maximum altitude 18:46:08 27° 69° (ENE) 999 3.7 -10.6°
Enters shadow 18:48:30 15° 120° (ESE) 1,420 4.3 -11.0°
